Cairo, Egypt

9:23 AM EET on December 14, 2017 (GMT +0200)
Cairo International Airport

Weather History for HECA - April, 2014

Change the Weather History Date:

Saturday, April 5, 2014

  Actual Average Record
Temperature  
Mean Temperature 70 °F -  
Max Temperature 84 °F 81 °F 104 °F (2003)
Min Temperature 55 °F 59 °F 51 °F (2005)
Cooling Degree Days 4    
Growing Degree Days 20 (Base 50)    
Moisture  
Dew Point 45 °F    
Average Humidity 46    
Maximum Humidity 82    
Minimum Humidity 9    
Precipitation  
Precipitation 0.00 in 0.00 in - ()
Sea Level Pressure  
Sea Level Pressure 30.00 in    
Wind  
Wind Speed 8 mph ()    
Max Wind Speed 14 mph    
Max Gust Speed -    
Visibility 6.0 miles    
Events      
Averages and records for this station are not official NWS values.
T = Trace of Precipitation, MM = Missing Value Source: Averaged Metar Reports

Daily Weather History Graph

Daily Weather History Graph

Search for Another Location

Airport or City:

Trip Planner

Search our weather history database for the weather conditions in past years. The results will help you decide how hot, cold, wet, or windy it might be!

Date:

Astronomy

Apr. 05, 2014 Rise Set
Actual Time 5:39 AM EET 6:15 PM EET
Civil Twilight 5:15 AM EET 6:39 PM EET
Nautical Twilight 4:46 AM EET 7:08 PM EET
Astronomical Twilight 4:17 AM EET 7:37 PM EET
Moon 9:44 AM EET (4/5) 11:43 PM EET (4/5)
Length of Visible Light 13h 24m
Length of Day
12h 36m
Waxing Crescent, 32% of the Moon is Illuminated
Apr 5
Waxing Crescent
Apr 7
First Quarter
Apr 15
Full
Apr 22
Last Quarter
Apr 29
New

Hourly Weather History & Observations

Time (EET) Temp. Dew Point Humidity Pressure Visibility Wind Dir Wind Speed Gust Speed Precip Events Conditions
12:00 AM 64.4 °F 44.6 °F 49% 30.09 in - ENE 10.4 mph - N/A   Clear
12:30 AM 62.6 °F 48.2 °F 59% 30.09 in - ENE 10.4 mph - N/A   Clear
1:00 AM 62.6 °F 50.0 °F 63% 30.06 in - ENE 10.4 mph - N/A   Clear
1:30 AM 60.8 °F 50.0 °F 68% 30.06 in - ENE 10.4 mph - N/A   Clear
2:00 AM 61 °F 50 °F 59% 30.09 in 6 mi ENE 10.4 mph - -  
2:00 AM 60.8 °F 50.0 °F 68% 30.06 in - ENE 10.4 mph - N/A   Clear
2:30 AM 59.0 °F 50.0 °F 72% 30.06 in - ENE 10.4 mph - N/A   Clear
3:00 AM 59.0 °F 50.0 °F 72% 30.06 in - ENE 5.8 mph - N/A   Clear
3:30 AM 59.0 °F 50.0 °F 72% 30.06 in - ENE 4.6 mph - N/A   Clear
4:00 AM 57.2 °F 50.0 °F 77% 30.06 in - ENE 3.5 mph - N/A   Clear
4:30 AM 57.2 °F 50.0 °F 77% 30.06 in - ENE 4.6 mph - N/A   Clear
5:00 AM 56 °F 50 °F 73% 30.08 in 6 mi NE 4.6 mph - -  
5:00 AM 57.2 °F 50.0 °F 77% 30.06 in - NE 4.6 mph - N/A   Clear
5:30 AM 55.4 °F 50.0 °F 82% 30.06 in - ENE 4.6 mph - N/A   Clear
6:00 AM 55.4 °F 50.0 °F 82% 30.06 in - ENE 4.6 mph - N/A   Clear
6:30 AM 57.2 °F 50.0 °F 77% 30.06 in - NE 4.6 mph - N/A   Clear
7:00 AM 57.2 °F 50.0 °F 77% 30.06 in - NE 4.6 mph - N/A   Clear
7:30 AM 57.2 °F 50.0 °F 77% 30.06 in - NE 4.6 mph - N/A   Clear
8:00 AM 62 °F 49 °F 54% 30.09 in 6 mi NNE 5.8 mph - -  
8:00 AM 62.6 °F 50.0 °F 63% 30.06 in - NNE 5.8 mph - N/A   Clear
8:30 AM 66.2 °F 44.6 °F 46% 30.06 in - NE 10.4 mph - N/A   Clear
9:00 AM 68.0 °F 42.8 °F 40% 30.06 in - NE 10.4 mph - N/A   Clear
9:30 AM 69.8 °F 41.0 °F 35% 30.04 in - NE 10.4 mph - N/A   Clear
10:00 AM 71.6 °F 39.2 °F 31% 30.04 in - NE 9.2 mph - N/A   Clear
10:30 AM 71.6 °F 39.2 °F 31% 30.04 in - NE 9.2 mph - N/A   Clear
11:00 AM 76 °F 35 °F 13% 30.04 in 6 mi ENE 11.5 mph - -  
11:00 AM 75.2 °F 35.6 °F 24% 30.04 in - ENE 11.5 mph - N/A   Clear
11:30 AM 75.2 °F 35.6 °F 24% 30.04 in - ENE 11.5 mph - N/A   Clear
12:00 PM 78.8 °F 35.6 °F 21% 30.01 in - ENE 10.4 mph - N/A   Clear
12:30 PM 80.6 °F 35.6 °F 20% 29.98 in - NE 11.5 mph - N/A   Clear
1:00 PM 80.6 °F 33.8 °F 18% 29.98 in - ENE 10.4 mph - N/A   Clear
1:30 PM 82.4 °F 33.8 °F 17% 29.98 in - NNE 6.9 mph - N/A   Clear
2:00 PM 83 °F 34 °F 9% 29.96 in 6 mi NNE 6.9 mph - -  
2:00 PM 82.4 °F 33.8 °F 17% 29.95 in - NNE 6.9 mph - N/A   Clear
2:30 PM 84.2 °F 32.0 °F 15% 29.95 in - NE 5.8 mph - N/A   Clear
3:00 PM 84.2 °F 32.0 °F 15% 29.92 in - NNE 4.6 mph - N/A   Clear
3:30 PM 84.2 °F 30.2 °F 14% 29.92 in - North 5.8 mph - N/A   Clear
4:00 PM 84.2 °F 30.2 °F 14% 29.92 in - North 5.8 mph - N/A   Clear
4:30 PM 86.0 °F 28.4 °F 12% 29.92 in - North 4.6 mph - N/A   Clear
5:00 PM 85 °F 39 °F 11% 29.91 in 6 mi NNW 4.6 mph - -  
5:00 PM 84.2 °F 39.2 °F 20% 29.89 in - NNW 4.6 mph - N/A   Clear
5:30 PM 82.4 °F 42.8 °F 25% 29.89 in - NNW 9.2 mph - N/A   Clear
6:00 PM 82.4 °F 41.0 °F 23% 29.89 in - NNW 8.1 mph - N/A   Clear
6:30 PM 78.8 °F 51.8 °F 39% 29.89 in - North 11.5 mph - N/A   Clear
7:00 PM 77.0 °F 51.8 °F 41% 29.92 in - NNE 12.7 mph - N/A   Clear
7:30 PM 73.4 °F 50.0 °F 44% 29.92 in - NE 13.8 mph - N/A   Clear
8:00 PM 72 °F 50 °F 34% 29.93 in 6 mi NE 12.7 mph - -  
8:00 PM 71.6 °F 50.0 °F 46% 29.92 in - NE 11.5 mph - N/A   Clear
8:30 PM 69.8 °F 50.0 °F 49% 29.95 in - NNE 10.4 mph - N/A   Clear
9:00 PM 69.8 °F 50.0 °F 49% 29.95 in - NNE 10.4 mph - N/A   Clear
9:30 PM 68.0 °F 50.0 °F 52% 29.95 in - NNE 10.4 mph - N/A   Clear
10:00 PM 68.0 °F 51.8 °F 56% 29.95 in - NNE 11.5 mph - N/A   Clear
10:30 PM 66.2 °F 53.6 °F 64% 29.95 in - NNE 11.5 mph - N/A   Clear
11:00 PM 65 °F 53 °F 56% 29.98 in 6 mi NNE 8.1 mph - -  
11:00 PM 64.4 °F 53.6 °F 68% 29.98 in - NNE 8.1 mph - N/A   Clear
11:30 PM 64.4 °F 53.6 °F 68% 29.98 in - NNE 8.1 mph - N/A   Clear